Victoria, British Columbia

9:02 PM PDT on May 28, 2017 (GMT -0700)
Victoria International

Weather History for CYYJ - February, 2014

Change the Weather History Date:

Monday, February 10, 2014

  Actual Average Record
Temperature  
Mean Temperature 40 °F -  
Max Temperature 47 °F 48 °F 56 °F (2015)
Min Temperature 32 °F 34 °F 26 °F (2009)
Degree Days  
Heating Degree Days 26    
Moisture  
Dew Point 37 °F    
Average Humidity 94    
Maximum Humidity 100    
Minimum Humidity 76    
Precipitation  
Precipitation 0.28 in 0.12 in - ()
Sea Level Pressure  
Sea Level Pressure 29.97 in    
Wind  
Wind Speed 5 mph ()    
Max Wind Speed 14 mph    
Max Gust Speed 21 mph    
Visibility 7.9 miles    
Events Rain , Snow    
Averages and records for this station are not official NWS values.
T = Trace of Precipitation, MM = Missing Value Source: Averaged Metar Reports

Daily Weather History Graph

Daily Weather History Graph

Search for Another Location

Airport or City:

Trip Planner

Search our weather history database for the weather conditions in past years. The results will help you decide how hot, cold, wet, or windy it might be!

Date:

Astronomy

Feb. 10, 2014 Rise Set
Actual Time 7:29 AM PST 5:27 PM PST
Civil Twilight 6:56 AM PST 5:59 PM PST
Nautical Twilight 6:19 AM PST 6:37 PM PST
Astronomical Twilight 5:43 AM PST 7:13 PM PST
Moon 1:52 PM PST (2/10) 4:35 AM PST (2/10)
Length of Visible Light 11h 03m
Length of Day
9h 57m
Waxing Gibbous, 85% of the Moon is Illuminated
Feb 10
Waxing Gibbous
Feb 14
Full
Feb 22
Last Quarter
Mar 1
New
Mar 8
First Quarter

Hourly Weather History & Observations

Time (PST) Temp. Windchill Dew Point Humidity Pressure Visibility Wind Dir Wind Speed Gust Speed Precip Events Conditions
12:00 AM 33.8 °F 30.8 °F 33.8 °F 100% 30.09 in 1.0 mi WSW 3.5 mph - N/A Rain , Snow Light Rain
1:00 AM 33.8 °F - 33.8 °F 100% 30.07 in 1.0 mi WSW 2.3 mph - N/A Rain Light Rain
1:07 AM 33.8 °F 30.8 °F 33.8 °F 100% 30.07 in 1.0 mi West 3.5 mph - N/A Snow Light Snow
2:00 AM 33.8 °F 30.8 °F 33.8 °F 100% 30.06 in 1.0 mi WSW 3.5 mph - N/A   Light Drizzle
2:21 AM 33.8 °F - 33.8 °F 100% 30.06 in 1.0 mi West 2.3 mph - N/A Rain Light Rain
3:00 AM 32.0 °F 28.7 °F 32.0 °F 100% 30.05 in 1.0 mi SW 3.5 mph - N/A Rain , Snow Light Rain
3:32 AM 32.0 °F 27.5 °F 32.0 °F 100% 30.05 in 1.0 mi West 4.6 mph - N/A Snow Light Snow
4:00 AM 33 °F - 33 °F 97% 30.04 in 1 mi West 3.5 mph - - Snow Light Snow
4:00 AM 32.0 °F 28.7 °F 32.0 °F 100% 30.03 in 1.0 mi WNW 3.5 mph - N/A Snow Light Snow
5:00 AM 32.0 °F 27.5 °F 32.0 °F 100% 30.01 in 1.0 mi West 4.6 mph - N/A Snow Light Snow
6:00 AM 32.0 °F 28.7 °F 32.0 °F 100% 29.98 in 3.0 mi West 3.5 mph - N/A Snow Light Snow
6:14 AM 32.0 °F - 32.0 °F 100% 29.98 in 3.0 mi West 2.3 mph - N/A Rain , Snow Light Rain
7:00 AM 33.8 °F 29.6 °F 33.8 °F 100% 29.96 in 3.0 mi West 4.6 mph - N/A Rain , Snow Light Rain
7:26 AM 33.8 °F 28.6 °F 33.8 °F 100% 29.96 in 3.0 mi West 5.8 mph - N/A Rain Light Rain
8:00 AM 33.8 °F 27.7 °F 33.8 °F 100% 29.96 in 3.0 mi West 6.9 mph - N/A Rain Light Rain
8:09 AM 33.8 °F 28.6 °F 33.8 °F 100% 29.96 in 1.2 mi West 5.8 mph - N/A Rain Light Rain
9:00 AM 33.8 °F 27.7 °F 33.8 °F 100% 29.95 in 2.0 mi West 6.9 mph - N/A Rain Light Rain
9:18 AM 33.8 °F 29.6 °F 33.8 °F 100% 29.95 in 2.0 mi SW 4.6 mph - N/A Rain Light Rain
10:00 AM 35 °F - 35 °F 97% 29.94 in 2 mi West 4.6 mph - - Rain Light Rain
10:00 AM 33.8 °F 29.6 °F 33.8 °F 100% 29.94 in 2.0 mi West 4.6 mph - N/A Rain Light Rain
11:00 AM 37.4 °F 33.8 °F 37.4 °F 100% 29.95 in 3.0 mi WNW 4.6 mph - N/A Rain Light Rain
11:33 AM 42.8 °F 36.6 °F 42.8 °F 100% 29.95 in 4.0 mi SSE 11.5 mph - N/A   Mostly Cloudy
12:00 PM 44.6 °F 38.1 °F 42.8 °F 93% 29.95 in 8.0 mi South 13.8 mph - N/A   Mostly Cloudy
1:00 PM 46.4 °F 40.7 °F 42.8 °F 87% 29.93 in 15.0 mi ESE 12.7 mph - N/A   Mostly Cloudy
1:16 PM 46.4 °F 41.1 °F 42.8 °F 87% 29.92 in 15.0 mi ESE 11.5 mph - N/A Rain Light Rain
2:00 PM 46.4 °F 40.4 °F 44.6 °F 93% 29.91 in 15.0 mi South 13.8 mph 20.7 mph N/A Rain Light Rain
3:00 PM 46.4 °F 42.9 °F 44.6 °F 93% 29.92 in 15.0 mi SSE 6.9 mph - N/A Rain Light Rain
4:00 PM 46 °F - 44 °F 91% 29.94 in 19 mi ESE 5.8 mph - - Rain Light Rain
4:00 PM 46.4 °F 41.9 °F 44.6 °F 93% 29.94 in 20.0 mi SE 9.2 mph - N/A   Mostly Cloudy
5:00 PM 46.4 °F 42.4 °F 42.8 °F 87% 29.95 in 20.0 mi SE 8.1 mph - N/A   Overcast
6:00 PM 41.0 °F 38.0 °F 41.0 °F 100% 29.96 in 20.0 mi West 4.6 mph - N/A   Overcast
7:00 PM 41.0 °F - 39.2 °F 93% 29.95 in 20.0 mi Variable 2.3 mph - N/A   Overcast
7:37 PM 46.4 °F 42.9 °F 39.2 °F 76% 29.94 in 5.0 mi South 6.9 mph - N/A Rain Light Rain
8:00 PM 44.6 °F 43.1 °F 39.2 °F 81% 29.94 in 15.0 mi Variable 3.5 mph - N/A Rain Light Rain
9:00 PM 44.6 °F 40.7 °F 41.0 °F 87% 29.95 in 12.0 mi South 6.9 mph - N/A Rain Light Rain
9:46 PM 42.8 °F 39.3 °F 39.2 °F 87% 29.94 in 15.0 mi SE 5.8 mph - N/A   Mostly Cloudy
10:00 PM 42 °F - 39 °F 86% 29.93 in 15 mi SSE 6.9 mph - - Rain Light Rain
10:00 PM 42.8 °F 38.0 °F 39.2 °F 87% 29.93 in 15.0 mi SSE 8.1 mph - N/A   Mostly Cloudy
11:00 PM 44.6 °F 39.7 °F 37.4 °F 76% 29.95 in 15.0 mi WSW 9.2 mph - N/A   Mostly Cloudy
11:40 PM 41.0 °F 36.4 °F 35.6 °F 81% 29.97 in 15.0 mi WSW 6.9 mph - N/A Rain Light Rain Showers